Location: Noordwijk
(52.2400°N, 4.4500°E)
Time: 06:26:31
(UTC+00:00)

AO-85 - Pass Details

Date: 02 December 2022
Orbit: 516 x 753 km, 64.8° (Epoch: 04 January)

Event Time Altitude Azimuth Distance (km) Brightness Sun altitude
Rises 16:43:30 0° 241° (WSW) 2,984 ? -10.2°
Reaches altitude 10° 16:45:58 10° 247° (WSW) 2,034 ? -10.6°
Maximum altitude 16:50:23 46° 321° (NW) 825 ? -11.2°
Enters shadow 16:54:11 12° 34° (NE) 1,780 ? -11.8°
